[[{"header":{"parameterUnit":"m.s-1","parameterCategory":1,"la1":30.2991,"la2":30.254,"lo1":-89.0895,"lo2":-89.0444,"dy":0.0017,"dx":0.0017,"nx":28,"ny":28,"refTime":"2023-03-30T21:00:00:Z","depth":0,"parameterNumber":2,"parameterNumberName":"U-component_of_WINDS"},"data":[0,0,0,0,0,0,0,0,0,0,0,0,0,0,0,0,0,0,0,0,0,0,0,0,0,0,0,0,0,0,0,0,0,0,0,0,0,0,0,0,0,0,0,0,0,0,0,0,0,0,0,0,0,0,0,0,0,0,1.9105,1.9105,0,1.9102,1.9102,1.9102,1.9052,1.905,1.9049,1.9048,1.9046,1.9047,1.9049,0,0,0,0,0,0,0,0,0,0,0,0,0,1.907,1.9071,1.9105,1.9105,1.9105,1.9102,1.9102,1.9102,1.9052,1.905,1.9049,1.9047,1.9046,1.9047,1.9049,0,0,0,0,0,0,0,0,0,0,0,0,0,1.9078,1.9071,1.9105,1.908,1.9077,1.9102,1.9102,1.9102,1.9052,1.905,1.9048,1.9047,1.9045,1.9047,1.9049,1.9098,0,0,1.9054,1.9055,0,0,0,0,0,0,0,0,1.9077,1.9079,1.9083,1.9081,1.9079,1.9075,1.9089,1.91,1.9053,1.9062,1.9048,1.9046,1.9058,1.9058,1.9062,1.9098,1.9098,1.9054,1.9055,1.9056,1.9057,0,0,0,0,0,0,0,1.9077,1.9079,1.9104,1.9083,1.9081,1.9069,1.9068,1.9091,1.9071,1.9061,1.9057,1.9057,1.9056,1.906,1.9061,1.9098,1.9054,1.9056,1.9057,1.9058,1.9173,1.9175,0,0,0,0,0,0,1.908,1.9079,1.9104,1.9104,1.9073,1.9071,1.907,1.9078,1.907,1.9067,1.9059,1.9055,1.9058,1.9059,1.9061,1.9118,1.9056,1.9058,1.9059,1.9171,1.9174,1.9176,0,0,0,0,0,0,1.9079,1.9082,1.9104,1.909,1.9092,1.9074,1.9083,1.9079,1.9083,1.9069,1.9065,1.9067,1.9057,1.9059,1.9089,1.9117,1.9058,1.906,1.9169,1.9172,1.9175,1.9231,0,0,0,0,0,0,1.9078,1.9082,1.91,1.9091,1.9093,1.9131,1.9085,1.908,1.9086,1.9081,1.9075,1.9072,1.9055,1.9087,1.9091,1.9118,1.9061,1.9166,1.917,1.9174,1.9227,1.9236,1.9243,0,0,0,0,0,1.9077,1.9117,1.9101,1.9105,1.9115,1.9133,1.9134,1.9113,1.9089,1.9107,1.9097,1.9073,1.9113,1.909,1.9094,1.9123,1.9164,1.9169,1.9174,1.9223,1.9234,1.9243,0,0,0,0,0,0,1.9131,1.9115,1.9098,1.9136,1.9136,1.9125,1.9147,1.9126,1.9134,1.9128,1.9103,1.9102,1.9136,1.9132,1.9107,1.917,1.9134,1.914,1.9171,1.9181,1.9189,1.9189,1.9063,0,0,0,0,0,1.9147,1.9162,1.9148,1.9183,1.9184,1.9165,1.9172,1.9156,1.9156,1.9156,1.9149,1.915,1.9162,1.9172,1.9183,1.9226,1.9224,1.9248,1.9256,1.9263,1.9268,1.9291,1.9301,1.9191,1.9191,1.9191,0,0,1.918,1.9174,1.9185,1.9193,1.9191,1.9208,1.9166,1.9186,1.9198,1.9159,1.9187,1.9182,1.9181,1.9218,1.9234,1.9216,1.9298,1.9269,1.9275,1.9276,1.9296,1.9307,1.9316,1.9194,1.9194,1.9193,0,0,1.925,1.9246,1.9275,1.9274,1.9272,1.9259,1.9266,1.9258,1.9253,1.928,1.9251,1.9266,1.9289,1.9289,1.9293,1.9363,1.934,1.9367,1.9411,1.9433,1.9442,1.9449,1.9474,1.9483,1.9373,1.9373,1.9373,0,1.9292,1.9316,1.9292,1.9314,1.9318,1.9283,1.9312,1.9312,1.9314,1.9318,1.9298,1.9326,1.9323,1.936,1.9377,1.9381,1.9388,1.9368,1.9442,1.945,1.9456,1.948,1.9489,1.9376,1.9376,1.9375,1.9375,0,1.9367,1.9384,1.9408,1.9409,1.9417,1.9442,1.9423,1.9433,1.9416,1.9406,1.9435,1.943,1.9439,1.9447,1.9431,1.9481,1.947,1.9447,1.9411,1.9471,1.9492,1.9501,1.9381,1.9379,1.9378,1.9378,0,0,1.947,1.9459,1.9468,1.9468,1.9463,1.9476,1.95,1.9508,1.9518,1.952,1.954,1.956,1.9538,1.9542,1.9526,1.9545,1.9601,1.9519,1.9519,1.9534,1.9656,1.9673,1.9684,1.9586,1.9588,1.9589,1.9655,0,1.9537,1.9576,1.9555,1.9597,1.9613,1.958,1.9601,1.96,1.9592,1.9604,1.9595,1.9609,1.9579,1.9581,1.9599,1.959,1.9625,1.9585,1.9604,1.9605,1.9604,1.9695,1.9713,1.9776,1.9664,1.9665,1.9666,0,1.962,1.9625,1.9669,1.9661,1.9666,1.9685,1.9691,1.9704,1.9703,1.9695,1.9699,1.9679,1.9702,1.9667,1.9698,1.9672,1.9678,1.9675,1.9677,1.9678,1.9639,1.9697,1.9796,1.9805,1.9679,1.9678,1.9677,0,1.969,1.9708,1.9736,1.9738,1.9729,1.9743,1.9741,1.9738,1.9744,1.975,1.9754,1.9763,1.9767,1.9775,1.9757,1.9733,1.9791,1.9755,1.9786,1.9786,1.9799,1.9798,1.9899,1.9804,1.9804,1.9804,1.9804,0,1.9766,1.9794,1.9768,1.9785,1.9815,1.9792,1.9823,1.9816,1.9814,1.983,1.9803,1.9818,1.9794,1.9808,1.9794,1.9822,1.9825,1.982,1.9816,1.9822,1.9822,1.9825,1.982,1.9806,1.9806,1.9805,1.9805,0,1.9849,1.9833,1.9861,1.9851,1.9849,1.9872,1.9863,1.9879,1.9868,1.9889,1.9892,1.9876,1.9891,1.9874,1.9887,1.9878,1.9916,1.9906,1.9916,1.9913,1.9945,1.9942,2.0051,2.0064,1.9961,1.9962,1.9963,0,1.9898,1.9919,1.9911,1.9919,1.9918,1.9932,1.9938,1.9916,1.9924,1.9925,1.9941,1.9952,1.9961,1.9985,1.9975,1.9985,1.9974,2.0012,1.9976,1.9981,1.9975,1.9973,1.9975,2.0019,2.0021,2.0022,2.0022,0,1.9988,1.9979,1.9988,1.9996,2.0004,2.0009,2.0012,2.002,1.9998,2.0008,2.0022,2.0028,2.0041,2.0054,2.0061,2.0058,2.0037,2.0034,2.0041,2.0048,2.0053,2.005,1.9936,2.0031,2.003,2.003,2.0029,2.0029,2.0055,2.0072,2.0068,2.008,2.008,2.0083,2.0098,2.0089,2.01,2.0109,2.0095,2.0113,2.0112,2.0119,2.0119,2.0133,2.0117,2.0128,2.013,2.0133,2.0138,2.0051,2.0134,2.0134,2.0133,2.0133,2.0133,0,2.0142,2.0139,2.015,2.0155,2.0164,2.0143,2.0145,2.0154,2.017,2.017,2.0179,2.0195,2.0207,2.0198,2.0208,2.022,2.0211,2.0224,2.0222,2.0222,2.0152,2.0144,2.0231,2.0231,2.0231,2.0231,2.0231,2.0231,2.0189,2.0216,2.0206,2.0233,2.0229,2.0246,2.0249,2.0252,2.0252,2.0271,2.028,2.0274,2.0271,2.028,2.029,2.0287,2.0292,2.0308,2.0302,2.0237,2.0227,2.0218,2.021,2.031,2.031,2.037,2.0371,2.0372]},{"header":{"parameterUnit":"m.s-1","parameterCategory":1,"la1":30.2991,"la2":30.254,"lo1":-89.0895,"lo2":-89.0444,"dy":0.0017,"dx":0.0017,"nx":28,"ny":28,"refTime":"2023-03-30T21:00:00:Z","depth":0,"parameterNumber":3,"parameterNumberName":"V-component_of_WINDS"},"data":[0,0,0,0,0,0,0,0,0,0,0,0,0,0,0,0,0,0,0,0,0,0,0,0,0,0,0,0,0,0,0,0,0,0,0,0,0,0,0,0,0,0,0,0,0,0,0,0,0,0,0,0,0,0,0,0,0,0,3.8995,3.8997,0,3.924,3.9243,3.9246,3.932,3.9318,3.9317,3.9316,3.9571,3.9578,3.9586,0,0,0,0,0,0,0,0,0,0,0,0,0,3.8592,3.8599,3.8994,3.8997,3.9001,3.924,3.9243,3.9247,3.932,3.9318,3.9317,3.9315,3.9568,3.9577,3.9587,0,0,0,0,0,0,0,0,0,0,0,0,0,3.8795,3.8602,3.8994,3.9066,3.9075,3.9239,3.9243,3.9248,3.932,3.9318,3.9317,3.9315,3.9565,3.9577,3.9588,3.97,0,0,3.9625,3.963,0,0,0,0,0,0,0,0,3.8784,3.881,3.9052,3.9061,3.9071,3.9247,3.9195,3.9399,3.9321,3.9227,3.9316,3.9314,3.9465,3.9485,3.9535,3.9712,3.9723,3.9626,3.9633,3.9638,3.9642,0,0,0,0,0,0,0,3.877,3.88,3.9092,3.9056,3.9067,3.9087,3.9114,3.9234,3.9354,3.9235,3.9241,3.9269,3.947,3.9524,3.9542,3.9726,3.9625,3.9636,3.9643,3.9648,4.0009,4.0011,0,0,0,0,0,0,3.8743,3.8788,3.9084,3.9099,3.892,3.9096,3.9126,3.9193,3.9353,3.9375,3.927,3.9272,3.9504,3.9528,3.9551,3.9694,3.9638,3.9649,3.9656,4.0006,4.0009,4.0012,0,0,0,0,0,0,3.8734,3.8769,3.9074,3.8945,3.8986,3.9105,3.918,3.9199,3.9253,3.9379,3.9401,3.9303,3.9504,3.9534,3.9662,3.9703,3.9655,3.9665,4.0003,4.0007,4.0011,3.9978,0,0,0,0,0,0,3.8722,3.8765,3.8807,3.8946,3.8992,3.918,3.9182,3.9205,3.9273,3.9276,3.9416,3.9437,3.9504,3.9644,3.9674,3.9719,3.9675,4.0,4.0005,4.0009,3.9976,3.998,3.9984,0,0,0,0,0,3.8707,3.8789,3.8809,3.8845,3.9048,3.9182,3.9209,3.9284,3.9275,3.932,3.9402,3.9433,3.9693,3.9657,3.9691,3.974,3.9998,4.0004,4.0009,3.9974,3.9979,3.9984,0,0,0,0,0,0,3.8653,3.8808,3.8833,3.8961,3.9058,3.9194,3.9253,3.9287,3.9389,3.9389,3.9478,3.9509,3.9631,3.9699,3.9655,3.9857,3.9847,3.986,3.9809,3.9815,3.9818,3.98,3.9685,0,0,0,0,0,3.8656,3.8751,3.8882,3.8983,3.903,3.9133,3.9194,3.9244,3.9348,3.939,3.9481,3.9582,3.9687,3.9755,3.9858,3.9986,4.0018,4.0037,4.004,4.0043,4.0053,4.0128,4.0138,4.003,4.003,4.003,0,0,3.8663,3.876,3.8814,3.8974,3.9055,3.9153,3.9167,3.927,3.9344,3.9406,3.9533,3.9603,3.9722,3.9851,3.9912,3.9911,4.009,4.005,4.0051,4.006,4.0134,4.0144,4.0153,4.0033,4.0033,4.0032,0,0,3.8727,3.8808,3.8902,3.8983,3.9105,3.9173,3.9195,3.9327,3.9376,3.9505,3.9554,3.9644,3.9822,3.9906,3.9971,4.0067,4.01,4.0098,4.0119,4.019,4.0199,4.0207,4.0243,4.0254,4.0108,4.0108,4.0108,0,3.872,3.8869,3.8946,3.9047,3.9116,3.9176,3.9273,3.9348,3.9498,3.9545,3.9541,3.9767,3.9851,4.0001,4.0025,4.0075,4.0105,4.0083,4.0191,4.02,4.0208,4.0244,4.0257,4.0107,4.0107,4.0107,4.0107,0,3.8856,3.8959,3.902,3.9163,3.9239,3.9337,3.943,3.9499,3.9541,3.961,3.9741,3.9844,3.9971,4.001,4.0052,4.0167,4.0162,4.0173,4.0165,4.0217,4.0251,4.0265,4.0105,4.0106,4.0106,4.0106,0,0,3.8893,3.9077,3.9098,3.9165,3.9304,3.9386,3.9487,3.961,3.9667,3.9769,3.9857,4.0007,4.0019,4.0093,4.0146,4.0209,4.028,4.0213,4.0217,4.0223,4.0415,4.0406,4.042,4.0302,4.0305,4.0308,4.0405,0,3.8975,3.9158,3.923,3.9379,3.9476,3.9534,3.9623,3.9719,3.9786,3.9879,3.9954,4.0059,4.0066,4.0111,4.0176,4.0258,4.032,4.0252,4.0388,4.0391,4.0357,4.0439,4.043,4.0517,4.0419,4.0421,4.0423,0,3.9096,3.9198,3.9356,3.9485,3.9528,3.9607,3.9726,3.9813,3.9924,3.9968,4.0052,4.0101,4.0211,4.0195,4.0349,4.0301,4.0361,4.041,4.0415,4.0432,4.0411,4.0459,4.0547,4.056,4.0445,4.0443,4.0442,0,3.9109,3.9286,3.9404,3.9459,3.9611,3.9665,3.9732,3.984,3.991,4.0014,4.0061,4.0176,4.024,4.0329,4.041,4.039,4.0557,4.0547,4.0599,4.0597,4.0633,4.0629,4.0732,4.0668,4.0668,4.0668,4.0667,0,3.9194,3.9289,3.9412,3.9485,3.9593,3.9676,3.9782,3.9853,3.9949,4.0038,4.0095,4.0177,4.0277,4.0373,4.0436,4.0555,4.0583,4.0624,4.064,4.062,4.0615,4.0661,4.0658,4.0671,4.067,4.067,4.0669,0,3.9228,3.9313,3.9446,3.958,3.9616,3.969,3.9805,3.9879,3.9949,4.006,4.0091,4.0201,4.0317,4.0405,4.0555,4.0598,4.0725,4.0741,4.0687,4.0696,4.0744,4.0739,4.0881,4.0905,4.0823,4.0823,4.0824,0,3.9277,3.9352,3.9493,3.9556,3.9622,3.9723,3.9794,3.9879,3.9951,4.0083,4.0141,4.026,4.0361,4.0543,4.0637,4.0753,4.0773,4.0815,4.0791,4.0769,4.0776,4.0771,4.078,4.0819,4.0819,4.082,4.082,0,3.9356,3.9395,3.9495,3.961,3.9694,3.9789,3.9885,3.9934,4.0036,4.0114,4.0233,4.031,4.0464,4.0583,4.0708,4.0778,4.0817,4.0827,4.0845,4.0826,4.0793,4.0813,4.0698,4.0823,4.0823,4.0823,4.0823,4.0822,3.9401,3.947,3.9581,3.9691,3.9772,3.9861,3.9937,4.0016,4.0116,4.0247,4.0291,4.0414,4.0525,4.0697,4.0768,4.0866,4.0867,4.0893,4.0901,4.0906,4.0905,4.0775,4.0889,4.0889,4.0889,4.0889,4.0889,0,3.9485,3.9559,3.9659,3.9792,3.9878,3.9906,4.0014,4.0086,4.0192,4.0292,4.0389,4.0526,4.0641,4.0744,4.0865,4.0924,4.0945,4.0953,4.0951,4.0966,4.0896,4.0869,4.0934,4.0934,4.0934,4.0934,4.0934,4.0934,3.9539,3.9658,3.971,3.9871,3.9945,4.0065,4.0125,4.0208,4.0288,4.0438,4.0534,4.06,4.0701,4.083,4.0938,4.0965,4.1008,4.1012,4.1044,4.0977,4.0971,4.0966,4.0941,4.102,4.102,4.1106,4.1107,4.1107]}]]